Flag for Germany Weather past 2 weeks in Weil am Rhein, Baden-Württemberg, Germany

Now
72 °F

Scattered clouds.


Feels Like: 77 °F
Forecast: 46 / 79 °F
Wind: 9 mph from West

Location: Bale-Mulhouse

Current Time: Jul 30, 2015 at 6:49:12 PM

Latest Report: Jul 30, 2015 at 6:00 PM


Visibility: 31 mi

Pressure: 29.97 "Hg

Humidity: 32%

Dew point: 41 °F

Location of Weil am RheinLocation

Historic Weather in Weil am Rhein — Graph

°F

Weil am Rhein temperature yesterday

Maximum temperature yesterday: 65 °F (at 4:00 PM)
Minimum temperature yesterday: 56 °F (at 11:00 PM)
Average temperature yesterday: 60 °F

Past Weeks' High & Low Weather Summary

 TemperatureHumidityPressure
High97 °F (Jul 17, 3:00 PM)98% (Jul 30, 4:00 AM)30.14 "Hg (Jul 30, 4:00 AM)
Low47 °F (Jul 26, 6:00 AM)22% (Jul 17, 5:00 PM)29.65 "Hg (Jul 24, 7:00 PM)
Average72 °F64%29.93 "Hg
* Reported Jul 15 5:00 PM — Jul 30 5:00 PM, Weil am Rhein, Weather by CustomWeather, © 2015

Note: Actual official high and low records may vary slightly from our data, if they occured in-between our weather recording intervals... More about our weather records

Advertising

Weil am Rhein weather history for previous 24 hours

 ConditionsComfort  
Time TempWeatherWind HumidityBarometerVisibility
5:00 PM
Thu, Jul 30
73 °FScattered clouds.7 mph33%29.97 "Hg31 mi
4:00 PM74 °FScattered clouds.6 mph34%29.97 "Hg31 mi
3:00 PM72 °FPartly sunny.9 mph33%29.98 "Hg31 mi
2:00 PM70 °FPartly sunny.8 mph33%29.99 "Hg31 mi
1:00 PM70 °FPartly sunny.6 mph35%30.00 "Hg31 mi
12:00 PM69 °FPartly sunny.6 mph37%30.00 "Hg31 mi
11:00 AM67 °FScattered clouds.5 mph50%30.01 "Hg25 mi
10:00 AM63 °FPassing clouds.3 mph63%30.02 "Hg25 mi
9:00 AM58 °FPassing clouds.6 mph77%30.03 "Hg25 mi
8:00 AM54 °FPassing clouds.7 mph87%30.04 "Hg19 mi
7:00 AM49 °FScattered clouds.3 mph96%30.04 "Hg16 mi
6:00 AM48 °FPassing clouds.3 mph97%30.04 "Hg16 mi
4:00 AM49 °FCool.5 mph98%30.03 "Hg13 mi
3:00 AM49 °FCool.No wind96%30.03 "Hg28 mi
2:00 AM51 °FCool.3 mph95%30.03 "Hg25 mi
1:00 AM52 °FCool.1 mph90%30.03 "Hg31 mi
12:00 AM55 °FPassing clouds.2 mph87%30.01 "Hg25 mi
11:00 PM
Wed, Jul 29
56 °FPassing clouds.7 mph87%30.00 "Hg25 mi
10:00 PM58 °FPassing clouds.6 mph85%29.99 "Hg25 mi
9:00 PM61 °FPartly sunny.7 mph78%29.97 "Hg25 mi
8:00 PM63 °FOvercast.6 mph76%29.96 "Hg25 mi
7:00 PM63 °FOvercast.3 mph73%29.94 "Hg25 mi
6:00 PM63 °FOvercast.5 mph77%29.93 "Hg25 mi
Weather by CustomWeather, © 2015

See weather overviewHow to use our weather pages